Location: Bu�n Treun
(12.1333°N, 108.3167°E)
Time: 23:50:21
(UTC+00:00)

Meteor 1-31 Rocket - Pass Details

Date: 13 July 2020
Orbit: 521 x 546 km, 97.6° (Epoch: 14 August)

Event Time Altitude Azimuth Distance (km) Brightness Sun altitude
Rises 21:08:22 0° 13° (NNE) 2,699 7.0 -18.8°
Reaches altitude 10° 21:10:29 10° 15° (NNE) 1,805 6.0 -18.3°
Maximum altitude 21:14:23 78° 100° (E) 556 2.8 -17.5°
Enters shadow 21:17:20 17° 187° (S) 1,409 4.6 -16.8°
